Location: ČR
(50.0000°N, 15.0000°E)
Time: 17:54:47
(UTC+00:00)

Envisat - Pass Details

Date: 01 October 2021
Orbit: 764 x 766 km, 98.2° (Epoch: 22 October)

Event Time Altitude Azimuth Distance (km) Brightness Sun altitude
Rises 03:32:18 0° 20° (NNE) 3,243 6.7 -14.8°
Reaches altitude 10° 03:34:49 10° 30° (NNE) 2,312 6.1 -14.4°
Maximum altitude 03:39:28 35° 96° (E) 1,225 4.8 -13.7°
Drops below altitude 10° 03:44:05 10° 161° (SSE) 2,295 5.6 -13.0°
Sets 03:46:33 0° 170° (S) 3,216 6.2 -12.6°
